FW9568 Weather Reports


time (UTC)temp
C
wind
direction
speed
KPH
gust
KPH
rain 1hr
cm
rain 24hr
cm
rain mn
cm
humidity
%
barometer
mb
20260507210903 20 279 9.7 17.7 0.00 0.00 0.00 26 1014.6
20260507210003 21 295 6.4 17.7 0.00 0.00 0.00 26 1014.8
20260507205403 21 294 4.8 12.9 0.00 0.00 0.00 26 1014.9
20260507204503 21 295 4.8 14.5 0.00 0.00 0.00 24 1015.2
20260507203603 21 308 4.8 14.5 0.00 0.00 0.00 25 1015.3
20260507202703 21 286 3.2 11.3 0.00 0.03 0.00 25 1015.4
20260507201803 21 258 3.2 11.3 0.00 0.03 0.00 26 1015.5
20260507201119 21 308 3.2 14.5 0.00 0.03 0.00 24 1015.6
20260507200003 21 331 4.8 12.9 0.00 0.05 0.00 24 1015.8
20260507195403 21 142 3.2 12.9 0.00 0.08 0.00 26 1015.6
20260507194503 21 95 4.8 9.7 0.00 0.13 0.00 24 1016.0
20260507193603 21 149 3.2 8.0 0.00 0.13 0.00 24 1016.1
20260507192703 21 191 3.2 11.3 0.00 0.13 0.00 27 1016.2
20260507191803 21 172 3.2 9.7 0.00 0.13 0.00 25 1016.1
20260507190903 20 216 3.2 9.7 0.00 0.15 0.00 24 1016.2
20260507190218 21 207 3.2 8.0 0.00 0.18 0.00 26 1016.4
20260507185403 20 215 3.2 9.7 0.00 0.20 0.00 26 1016.2
20260507184503 20 268 3.2 9.7 0.00 0.23 0.00 29 1016.3
20260507183603 21 182 1.6 6.4 0.00 0.28 0.00 21 1016.3
20260507182703 20 144 3.2 9.7 0.00 0.33 0.00 22 1016.4
20260507181803 20 120 1.6 6.4 0.00 0.36 0.00 25 1016.6
20260507180903 20 80 3.2 8.0 0.00 0.38 0.00 21 1017.0
20260507180217 20 78 3.2 9.7 0.00 0.41 0.00 24 1017.2
20260507175403 19 102 3.2 11.3 0.00 0.43 0.00 22 1017.3
20260507174503 19 105 1.6 11.3 0.00 0.43 0.00 21 1017.3
20260507173603 18 222 1.6 4.8 0.00 0.46 0.00 26 1017.5
20260507172703 18 141 1.6 9.7 0.00 0.46 0.00 25 1017.7
20260507171803 17 258 1.6 6.4 0.00 0.46 0.00 25 1017.7
20260507171118 17 275 3.2 6.4 0.00 0.48 0.00 25 1017.9
20260507170003 17 271 3.2 12.9 0.00 0.48 0.00 24 1017.8
20260507165616 17 217 1.6 4.8 0.00 0.48 0.00 28 1017.9
20260507164503 17 236 0.0 4.8 0.00 0.48 0.00 24 1018.1
20260507163603 16 234 1.6 8.0 0.00 0.51 0.00 25 1018.1
20260507162703 16 259 1.6 4.8 0.00 0.53 0.00 25 1018.0
20260507161803 16 267 1.6 6.4 0.00 0.53 0.00 26 1018.1
20260507160903 16 275 3.2 9.7 0.00 0.56 0.00 27 1018.0
20260507160003 15 287 4.8 12.9 0.00 0.58 0.00 30 1018.2
20260507155616 15 286 4.8 12.9 0.00 0.58 0.00 27 1018.1
20260507154503 15 288 4.8 12.9 0.00 0.61 0.00 30 1018.2
20260507153603 14 282 4.8 16.1 0.00 0.64 0.00 35 1018.3
20260507152703 14 291 3.2 6.4 0.00 0.64 0.00 34 1018.4
20260507152017 13 292 3.2 9.7 0.00 0.66 0.00 34 1018.4
20260507151117 13 278 4.8 11.3 0.00 0.66 0.00 34 1018.4
20260507150003 12 292 3.2 12.9 0.00 0.66 0.00 34 1018.3
20260507145403 12 282 3.2 8.0 0.00 0.66 0.00 41 1018.4
20260507144503 11 293 3.2 8.0 0.00 0.69 0.00 42 1018.4
20260507143603 11 293 3.2 9.7 0.00 0.69 0.00 43 1018.4
20260507142918 10 294 3.2 9.7 0.00 0.69 0.00 45 1018.2
20260507141803 9 302 3.2 6.4 0.00 0.69 0.00 45 1018.2
20260507141116 8 300 3.2 6.4 0.00 0.69 0.00 48 1018.5
20260507140216 8 300 3.2 6.4 0.00 0.69 0.00 50 1018.5
20260507135403 7 301 3.2 8.0 0.00 0.69 0.00 50 1018.7
20260507134503 7 300 3.2 8.0 0.00 0.69 0.00 50 1018.6
20260507133603 6 300 3.2 8.0 0.00 0.69 0.00 53 1018.4
20260507132703 6 302 3.2 6.4 0.00 0.69 0.00 53 1018.4
20260507131803 5 300 3.2 6.4 0.00 0.69 0.00 55 1018.3
20260507131116 5 303 3.2 6.4 0.00 0.69 0.00 56 1018.4
20260507130003 3 301 3.2 12.9 0.00 0.69 0.00 58 1018.6
20260507125403 3 303 3.2 12.9 0.00 0.69 0.00 61 1018.4
20260507124503 2 293 1.6 8.0 0.00 0.69 0.00 66 1018.2
20260507123818 1 294 0.0 4.8 0.00 0.69 0.00 69 1018.4
20260507122703 0 304 0.0 3.2 0.00 0.69 0.00 72 1018.2
20260507121803 0 304 0.0 1.6 0.00 0.69 0.00 73 1018.3
20260507120903 0 0 0.0 0.0 0.00 0.69 0.00 71 1018.2
20260507120003 0 304 0.0 3.2 0.00 0.69 0.00 72 1018.2
20260507115403 0 301 1.6 4.8 0.00 0.69 0.00 73 1018.2
20260507114718 0 303 3.2 6.4 0.00 0.69 0.00 74 1018.3
20260507113603 0 320 3.2 6.4 0.00 0.69 0.00 78 1018.0
20260507112703 0 305 1.6 4.8 0.00 0.69 0.00 80 1018.2
20260507111803 0 304 0.0 3.2 0.00 0.69 0.00 81 1018.2
20260507110903 0 310 0.0 3.2 0.00 0.69 0.00 80 1018.2
20260507110003 0 306 0.0 3.2 0.00 0.69 0.00 80 1018.2
20260507105618 0 297 1.6 4.8 0.00 0.69 0.00 80 1018.2
20260507104503 0 301 1.6 4.8 0.00 0.69 0.00 81 1018.3
20260507103603 0 301 1.6 3.2 0.00 0.69 0.00 82 1018.5
20260507102916 0 301 1.6 4.8 0.00 0.69 0.00 83 1018.5
20260507101803 -1 284 0.0 3.2 0.00 0.69 0.00 87 1018.5
20260507100903 -1 299 0.0 1.6 0.00 0.69 0.00 89 1018.6
20260507100003 -1 322 1.6 4.8 0.00 0.69 0.00 89 1018.6
20260507095403 -1 331 1.6 4.8 0.00 0.69 0.00 90 1018.6
20260507094503 -1 317 0.0 3.2 0.00 0.69 0.00 90 1018.8
20260507093603 -1 0 0.0 1.6 0.00 0.69 0.00 90 1018.8
20260507092703 -1 312 0.0 1.6 0.00 0.69 0.00 90 1019.0
20260507091803 -1 297 1.6 6.4 0.00 0.69 0.00 91 1019.0
20260507090903 -1 307 1.6 6.4 0.00 0.69 0.00 91 1019.2
20260507090003 -1 303 1.6 4.8 0.00 0.69 0.00 91 1019.0
20260507085403 -1 302 1.6 6.4 0.00 0.69 0.00 91 1019.1
20260507084503 -1 299 1.6 4.8 0.00 0.69 0.00 91 1019.1
20260507083603 -1 344 0.0 1.6 0.00 0.69 0.00 91 1019.2
20260507082703 -1 0 0.0 0.0 0.00 0.69 0.00 91 1019.4
20260507081803 -1 326 0.0 3.2 0.00 0.69 0.00 91 1019.4
20260507080903 -1 326 0.0 3.2 0.00 0.69 0.00 91 1019.4
20260507080003 -1 0 0.0 0.0 0.00 0.69 0.00 91 1019.5
20260507075403 -1 0 0.0 0.0 0.00 0.69 0.00 91 1019.7
20260507074503 -1 329 0.0 1.6 0.00 0.69 0.00 91 1019.9
20260507073603 -1 329 0.0 3.2 0.00 0.69 0.00 91 1020.0
20260507072703 -1 329 0.0 1.6 0.00 0.69 0.00 91 1020.0
20260507071803 -1 0 0.0 1.6 0.00 0.69 0.00 90 1020.1
20260507070903 -1 329 0.0 1.6 0.00 0.69 0.00 90 1020.1
20260507070005 -1 329 0.0 3.2 0.00 0.69 0.00 90 1020.1
20260507065403 -1 0 0.0 0.0 0.00 0.69 0.00 91 1020.3
20260507064503 -1 0 0.0 0.0 0.00 0.69 0.00 90 1020.4
20260507063603 -1 0 0.0 0.0 0.00 0.69 0.00 90 1020.4
20260507062703 -1 0 0.0 0.0 0.00 0.69 0.00 90 1020.4
20260507061803 -1 0 0.0 0.0 0.00 0.69 0.00 90 1020.3
20260507060903 -1 0 0.0 0.0 0.00 0.69 0.00 90 1020.2
20260507060004 -1 0 0.0 0.0 0.00 0.69 0.00 90 1020.3
20260507055403 -1 0 0.0 0.0 0.00 0.69 0.69 89 1020.3
20260507054503 -1 0 0.0 0.0 0.00 0.69 0.69 89 1020.2
20260507053603 -1 0 0.0 0.0 0.00 0.69 0.69 89 1020.0
20260507052918 -1 0 0.0 1.6 0.00 0.69 0.69 88 1020.1
20260507051803 -1 0 0.0 0.0 0.00 0.69 0.69 88 1020.0
20260507050903 0 0 0.0 0.0 0.00 0.69 0.69 88 1019.9
20260507050003 0 98 0.0 1.6 0.00 0.69 0.69 88 1019.8
20260507045403 0 98 0.0 1.6 0.00 0.69 0.69 88 1019.8
20260507044503 0 0 0.0 0.0 0.00 0.69 0.69 87 1019.9
20260507043603 0 0 0.0 0.0 0.00 0.69 0.69 86 1020.0
20260507042703 0 98 0.0 1.6 0.00 0.69 0.69 86 1020.0
20260507041803 0 0 0.0 0.0 0.00 0.69 0.69 86 1019.8
20260507040903 0 98 0.0 1.6 0.00 0.69 0.69 86 1019.9
20260507040003 0 98 0.0 3.2 0.00 0.69 0.69 86 1019.8
20260507035403 1 98 0.0 3.2 0.00 0.69 0.69 86 1019.7
20260507034503 1 98 0.0 3.2 0.00 0.69 0.69 86 1019.9
20260507033603 1 97 0.0 4.8 0.00 0.69 0.69 86 1019.7
20260507032703 1 95 0.0 4.8 0.00 0.69 0.69 86 1019.7
20260507031803 1 100 1.6 9.7 0.00 0.69 0.69 85 1019.6
20260507031117 1 103 1.6 6.4 0.00 0.69 0.69 84 1019.5
20260507030216 1 102 1.6 4.8 0.00 0.69 0.69 83 1019.4
20260507025619 1 101 1.6 3.2 0.00 0.69 0.69 82 1019.3
20260507024503 1 100 0.0 3.2 0.00 0.71 0.69 81 1019.3
20260507023603 1 115 0.0 3.2 0.00 0.71 0.69 81 1019.4
20260507022703 2 115 0.0 3.2 0.00 0.74 0.69 80 1019.2
20260507021803 2 129 0.0 3.2 0.00 0.74 0.69 79 1019.2
20260507020903 2 127 1.6 4.8 0.00 0.74 0.69 78 1019.2
20260507020003 2 123 1.6 4.8 0.00 0.74 0.69 77 1019.2
20260507015403 2 119 1.6 3.2 0.00 0.74 0.69 75 1019.2
20260507014718 3 112 1.6 6.4 0.00 0.74 0.69 74 1019.2
20260507013603 3 142 1.6 4.8 0.00 0.74 0.69 73 1019.3
20260507012703 3 154 1.6 3.2 0.00 0.76 0.69 73 1019.3
20260507011803 3 160 1.6 6.4 0.00 0.76 0.69 73 1019.1
20260507010003 3 140 1.6 9.7 0.00 0.76 0.69 71 1019.2
20260507005403 3 119 1.6 9.7 0.00 0.76 0.69 72 1019.1
20260507004503 4 147 1.6 4.8 0.00 0.76 0.69 70 1019.2
20260507003603 4 137 1.6 4.8 0.00 0.76 0.69 70 1019.0
20260507002703 4 123 1.6 9.7 0.00 0.76 0.69 70 1019.0
20260507001803 5 139 1.6 4.8 0.00 0.76 0.69 70 1018.9
20260507000903 5 120 1.6 6.4 0.00 0.76 0.69 69 1018.9
20260507000003 5 84 1.6 6.4 0.00 0.76 0.69 69 1019.0
20260506235403 5 212 1.6 3.2 0.00 0.76 0.69 71 1018.8
20260506234503 5 127 1.6 4.8 0.00 0.76 0.69 71 1019.1
20260506233817 5 103 1.6 9.7 0.00 0.76 0.69 72 1019.2
20260506232703 5 223 1.6 4.8 0.00 0.76 0.69 76 1019.1
20260506231803 5 195 1.6 4.8 0.00 0.79 0.69 76 1019.1
20260506230903 4 150 1.6 6.4 0.00 0.79 0.69 76 1019.1
20260506230003 4 178 1.6 6.4 0.00 0.79 0.69 77 1019.1
20260506225403 3 194 0.0 3.2 0.00 0.81 0.69 77 1019.0
20260506224503 3 222 0.0 3.2 0.00 0.81 0.69 77 1019.0
20260506223603 3 190 1.6 3.2 0.00 0.81 0.69 77 1018.9
20260506222703 3 209 1.6 3.2 0.00 0.81 0.69 78 1019.0
20260506222019 3 209 0.0 3.2 0.00 0.81 0.69 78 1019.0
20260506220903 3 227 0.0 3.2 0.00 0.81 0.69 77 1019.0
20260506220218 3 275 0.0 3.2 0.00 0.81 0.69 75 1019.2
20260506215403 3 291 0.0 1.6 0.00 0.81 0.69 75 1019.1
20260506214503 3 280 1.6 4.8 0.00 0.81 0.69 74 1019.1
20260506213816 3 276 3.2 9.7 0.00 0.81 0.69 76 1019.0
20260506212915 3 284 1.6 9.7 0.03 0.81 0.69 75 1019.1
20260506212019 3 282 1.6 6.4 0.03 0.81 0.69 78 1019.1
20260506211118 3 262 1.6 6.4 0.03 0.81 0.69 76 1019.0